• In Hungary
  • List of Countries
  • For 7 days
  • Water Temperature
  • Satellite Maps
  • Weather Map
  • News
  • Weather Widgets
  • user-avatar
    Login

    Hourly Weather Nagasaki

    Today, 12 November, Monday

    Time Temperature Precipitation Wind Pressure Humidity
    00:00 +17°C° 0 mm 3 mps 761 mmHg 51%
    01:00 +17°C° 0.2 mm 4 mps 760 mmHg 55%
    02:00 +18°C° 0.2 mm 4 mps 760 mmHg 59%
    03:00 +16°C° 0 mm 5 mps 759 mmHg 65%
    04:00 +16°C° 1.4 mm 6 mps 759 mmHg 71%
    05:00 +16°C° 1.4 mm 6 mps 759 mmHg 77%
    06:00 +15°C° 1.4 mm 7 mps 759 mmHg 84%
    07:00 +15°C° 1.7 mm 6 mps 759 mmHg 87%
    08:00 +15°C° 1.7 mm 6 mps 759 mmHg 90%
    09:00 +15°C° 0 mm 5 mps 759 mmHg 88%
    10:00 +15°C° 1.2 mm 4 mps 759 mmHg 89%
    11:00 +15°C° 1.2 mm 4 mps 758 mmHg 89%
    12:00 +15°C° 1.2 mm 4 mps 758 mmHg 90%
    13:00 +15°C° 1.3 mm 5 mps 758 mmHg 90%
    14:00 +15°C° 1.3 mm 6 mps 758 mmHg 91%
    15:00 +15°C° 0 mm 5 mps 757 mmHg 87%
    16:00 +15°C° 0.3 mm 5 mps 757 mmHg 86%
    17:00 +15°C° 0.3 mm 6 mps 757 mmHg 85%
    18:00 +15°C° 0.3 mm 6 mps 757 mmHg 84%
    19:00 +14°C° 0.1 mm 6 mps 757 mmHg 84%
    20:00 +14°C° 0.1 mm 6 mps 757 mmHg 83%
    21:00 +14°C° 0 mm 5 mps 757 mmHg 85%
    22:00 +14°C° 0 mm 5 mps 757 mmHg 85%
    23:00 +14°C° 0 mm 6 mps 757 mmHg 86%

    Tomorrow, 13 November, Tuesday

    Time Temperature Precipitation Wind Pressure Humidity
    00:00 +14°C° 0 mm 6 mps 757 mmHg 86%
    01:00 +14°C° 0 mm 7 mps 757 mmHg 86%
    02:00 +14°C° 0 mm 7 mps 757 mmHg 86%
    03:00 +14°C° 0 mm 7 mps 757 mmHg 87%
    04:00 +13°C° 0 mm 8 mps 757 mmHg 86%
    05:00 +13°C° 0 mm 8 mps 757 mmHg 86%
    06:00 +13°C° 0 mm 9 mps 757 mmHg 85%
    07:00 +15°C° 0 mm 8 mps 757 mmHg 82%
    08:00 +16°C° 0 mm 8 mps 758 mmHg 79%
    09:00 +17°C° 0 mm 8 mps 758 mmHg 76%
    10:00 +17°C° 0 mm 8 mps 758 mmHg 70%
    11:00 +18°C° 0 mm 7 mps 758 mmHg 65%
    12:00 +20°C° 0 mm 7 mps 758 mmHg 60%
    13:00 +20°C° 0 mm 7 mps 758 mmHg 58%
    14:00 +21°C° 0 mm 7 mps 757 mmHg 57%
    15:00 +21°C° 0 mm 7 mps 757 mmHg 55%
    16:00 +18°C° 0 mm 7 mps 757 mmHg 60%
    17:00 +17°C° 0 mm 8 mps 758 mmHg 65%
    18:00 +16°C° 0 mm 8 mps 758 mmHg 70%
    19:00 +15°C° 0 mm 8 mps 758 mmHg 70%
    20:00 +15°C° 0 mm 8 mps 759 mmHg 71%
    21:00 +13°C° 0 mm 9 mps 759 mmHg 72%
    22:00 +13°C° 0 mm 9 mps 759 mmHg 72%
    23:00 +13°C° 0 mm 9 mps 759 mmHg 73%

    Day after tomorrow, 14 November, Wednesday

    Time Temperature Precipitation Wind Pressure Humidity
    00:00 +12°C° 0 mm 9 mps 760 mmHg 73%
    01:00 +12°C° 0 mm 9 mps 760 mmHg 73%
    02:00 +12°C° 0 mm 9 mps 760 mmHg 74%
    03:00 +12°C° 0 mm 9 mps 760 mmHg 74%
    04:00 +12°C° 0 mm 9 mps 760 mmHg 73%
    05:00 +11°C° 0 mm 9 mps 760 mmHg 73%
    06:00 +11°C° 0 mm 9 mps 761 mmHg 73%
    07:00 +12°C° 0 mm 9 mps 761 mmHg 69%
    08:00 +13°C° 0 mm 9 mps 762 mmHg 66%
    09:00 +13°C° 0 mm 9 mps 762 mmHg 63%
    10:00 +15°C° 0 mm 8 mps 762 mmHg 59%
    11:00 +16°C° 0 mm 8 mps 762 mmHg 55%
    12:00 +17°C° 0 mm 7 mps 762 mmHg 51%
    13:00 +17°C° 0 mm 7 mps 762 mmHg 50%
    14:00 +17°C° 0 mm 7 mps 762 mmHg 49%
    15:00 +17°C° 0 mm 7 mps 762 mmHg 48%
    16:00 +16°C° 0 mm 7 mps 762 mmHg 51%
    17:00 +15°C° 0 mm 7 mps 762 mmHg 54%
    18:00 +14°C° 0 mm 7 mps 762 mmHg 57%
    19:00 +14°C° 0 mm 7 mps 763 mmHg 58%
    20:00 +14°C° 0 mm 7 mps 763 mmHg 59%
    21:00 +12°C° 0 mm 7 mps 764 mmHg 60%
    22:00 +12°C° 0 mm 7 mps 764 mmHg 61%
    23:00 +12°C° 0 mm 7 mps 764 mmHg 62%

    15 November, Thursday

    Time Temperature Precipitation Wind Pressure Humidity
    00:00 +11°C° 0 mm 7 mps 764 mmHg 63%
    01:00 +11°C° 0 mm 7 mps 764 mmHg 63%
    02:00 +11°C° 0 mm 8 mps 764 mmHg 63%
    03:00 +11°C° 0 mm 8 mps 764 mmHg 63%
    04:00 +11°C° 0 mm 8 mps 764 mmHg 63%
    05:00 +11°C° 0 mm 8 mps 764 mmHg 63%
    06:00 +11°C° 0 mm 7 mps 764 mmHg 63%
    07:00 +11°C° 0 mm 8 mps 765 mmHg 60%
    08:00 +12°C° 0 mm 8 mps 765 mmHg 58%
    09:00 +13°C° 0 mm 8 mps 765 mmHg 55%
    10:00 +15°C° 0 mm 7 mps 765 mmHg 51%
    11:00 +16°C° 0 mm 7 mps 765 mmHg 47%
    12:00 +17°C° 0 mm 6 mps 765 mmHg 43%
    13:00 +17°C° 0 mm 6 mps 764 mmHg 43%
    14:00 +19°C° 0 mm 5 mps 764 mmHg 42%
    15:00 +19°C° 0 mm 4 mps 764 mmHg 41%
    16:00 +18°C° 0 mm 4 mps 764 mmHg 45%
    17:00 +17°C° 0 mm 4 mps 764 mmHg 50%
    18:00 +16°C° 0 mm 3 mps 764 mmHg 54%
    19:00 +14°C° 0 mm 3 mps 764 mmHg 57%
    20:00 +14°C° 0 mm 3 mps 764 mmHg 60%
    21:00 +13°C° 0 mm 4 mps 764 mmHg 63%
    22:00 +13°C° 0 mm 3 mps 765 mmHg 64%
    23:00 +13°C° 0 mm 3 mps 765 mmHg 65%

    16 November, Friday

    Time Temperature Precipitation Wind Pressure Humidity
    00:00 +14°C° 0 mm 2 mps 765 mmHg 66%
    01:00 +14°C° 0 mm 2 mps 764 mmHg 67%
    02:00 +14°C° 0 mm 2 mps 764 mmHg 67%
    03:00 +14°C° 0 mm 2 mps 764 mmHg 67%
    04:00 +14°C° 0 mm 2 mps 764 mmHg 67%
    05:00 +13°C° 0 mm 3 mps 764 mmHg 67%
    06:00 +13°C° 0 mm 3 mps 764 mmHg 67%
    07:00 +14°C° 0 mm 3 mps 764 mmHg 66%
    08:00 +16°C° 0 mm 3 mps 764 mmHg 64%
    09:00 +16°C° 0 mm 3 mps 764 mmHg 63%
    10:00 +17°C° 0 mm 2 mps 764 mmHg 62%
    11:00 +17°C° 0 mm 2 mps 764 mmHg 62%
    12:00 +18°C° 0 mm 2 mps 763 mmHg 62%
    13:00 +18°C° 0.2 mm 2 mps 763 mmHg 61%
    14:00 +18°C° 0.2 mm 2 mps 762 mmHg 60%
    15:00 +19°C° 0.2 mm 3 mps 762 mmHg 58%
    16:00 +18°C° 0.3 mm 3 mps 762 mmHg 62%
    17:00 +17°C° 0.3 mm 4 mps 762 mmHg 66%
    18:00 +15°C° 0.3 mm 5 mps 762 mmHg 69%
    19:00 +15°C° 0.2 mm 5 mps 762 mmHg 69%
    20:00 +15°C° 0.2 mm 5 mps 763 mmHg 70%
    21:00 +14°C° 0.2 mm 5 mps 763 mmHg 70%
    22:00 +14°C° 0 mm 5 mps 763 mmHg 71%
    23:00 +14°C° 0 mm 5 mps 763 mmHg 72%

    17 November, Saturday

    Time Temperature Precipitation Wind Pressure Humidity
    00:00 +14°C° 0 mm 4 mps 762 mmHg 73%
    01:00 +14°C° 0.1 mm 5 mps 762 mmHg 73%
    02:00 +14°C° 0.1 mm 5 mps 762 mmHg 73%
    03:00 +14°C° 0.1 mm 6 mps 762 mmHg 73%
    04:00 +14°C° 0.1 mm 5 mps 762 mmHg 74%
    05:00 +14°C° 0.1 mm 5 mps 762 mmHg 74%
    06:00 +14°C° 0.1 mm 5 mps 762 mmHg 75%
    07:00 +14°C° 0.6 mm 6 mps 762 mmHg 77%
    08:00 +14°C° 0.6 mm 6 mps 762 mmHg 79%
    09:00 +14°C° 0.6 mm 6 mps 763 mmHg 82%
    10:00 +15°C° 0.5 mm 5 mps 762 mmHg 76%
    11:00 +16°C° 0.5 mm 5 mps 762 mmHg 70%
    12:00 +18°C° 0.5 mm 4 mps 762 mmHg 64%
    13:00 +18°C° 0.2 mm 4 mps 761 mmHg 61%
    14:00 +18°C° 0.2 mm 4 mps 761 mmHg 58%
    15:00 +19°C° 0.2 mm 4 mps 761 mmHg 56%
    16:00 +18°C° 0.1 mm 4 mps 761 mmHg 59%
    17:00 +17°C° 0.1 mm 3 mps 761 mmHg 62%
    18:00 +17°C° 0.1 mm 3 mps 761 mmHg 65%
    19:00 +15°C° 0 mm 4 mps 761 mmHg 66%
    20:00 +15°C° 0 mm 4 mps 762 mmHg 68%
    21:00 +14°C° 0 mm 4 mps 762 mmHg 70%
    22:00 +14°C° 0 mm 4 mps 762 mmHg 71%
    23:00 +14°C° 0 mm 4 mps 762 mmHg 72%
    Show more